Weather History for KSLO - January, 2013

Change the Weather History Date:

Thursday, January 10, 2013

  Actual Average Record
Temperature  
Mean Temperature 51 °F -  
Max Temperature 60 °F - - ()
Min Temperature 42 °F - - ()
Degree Days  
Heating Degree Days 14    
Growing Degree Days 1 (Base 50)    
Moisture  
Dew Point 44 °F    
Average Humidity 88    
Maximum Humidity 100    
Minimum Humidity 60    
Precipitation  
Precipitation 0.12 in - - ()
Sea Level Pressure  
Sea Level Pressure 30.17 in    
Wind  
Wind Speed 7 mph (East)    
Max Wind Speed 12 mph    
Max Gust Speed 20 mph    
Visibility 5 miles    
Events Fog , Rain    
T = Trace of Precipitation, MM = Missing Value Source: NWS Daily Summary

Daily Weather History Graph

Daily Weather History Graph

Search for Another Location

Airport or City:

Trip Planner

Search our weather history database for the weather conditions in past years. The results will help you decide how hot, cold, wet, or windy it might be!

Date:

Astronomy

Jan. 10, 2013 Rise Set
Actual Time 7:13 AM CST 4:53 PM CST
Civil Twilight 6:44 AM CST 5:23 PM CST
Nautical Twilight 6:11 AM CST 5:56 PM CST
Astronomical Twilight 5:39 AM CST 6:28 PM CST
Moon 5:53 AM CST (1/10) 4:01 PM CST (1/10)
Length of Visible Light 10h 38m
Length of Day
9h 40m
Waning Crescent, 2% of the Moon is Illuminated
Jan 10
Waning Crescent
Jan 11
New
Jan 18
First Quarter
Jan 26
Full
Feb 3
Last Quarter

Hourly Weather History & Observations

Time (CST) Temp. Windchill Dew Point Humidity Pressure Visibility Wind Dir Wind Speed Gust Speed Precip Events Conditions
12:15 AM 43.2 °F 40.5 °F 35.2 °F 74% 30.48 in 10.0 mi ENE 4.6 mph - N/A   Clear
12:35 AM 43.3 °F 40.7 °F 34.9 °F 72% 30.48 in 10.0 mi ENE 4.6 mph - N/A   Clear
12:55 AM 43.7 °F 41.1 °F 34.7 °F 71% 30.48 in 10.0 mi East 4.6 mph - N/A   Clear
2:15 AM 43.0 °F 38.8 °F 35.6 °F 75% 30.45 in 10.0 mi ENE 6.9 mph - N/A   Clear
2:35 AM 43.0 °F 38.2 °F 35.6 °F 75% 30.44 in 10.0 mi ENE 8.1 mph - N/A   Clear
2:55 AM 43.2 °F 39.7 °F 35.2 °F 74% 30.44 in 10.0 mi ENE 5.8 mph - N/A   Clear
3:15 AM 43.2 °F 39.7 °F 35.1 °F 73% 30.44 in 10.0 mi East 5.8 mph - N/A   Clear
3:35 AM 42.8 °F 39.3 °F 35.2 °F 75% 30.43 in 10.0 mi East 5.8 mph - N/A   Clear
3:55 AM 43.0 °F 39.5 °F 35.2 °F 74% 30.41 in 10.0 mi East 5.8 mph - N/A   Clear
4:15 AM 43.0 °F 38.8 °F 35.1 °F 74% 30.40 in 10.0 mi ENE 6.9 mph - N/A   Mostly Cloudy
4:35 AM 43.7 °F 39.7 °F 34.9 °F 71% 30.39 in 10.0 mi ENE 6.9 mph - N/A   Overcast
4:55 AM 44.1 °F 40.1 °F 34.7 °F 70% 30.37 in 10.0 mi ENE 6.9 mph - N/A   Overcast
5:15 AM 44.1 °F 40.1 °F 34.7 °F 70% 30.36 in 10.0 mi ENE 6.9 mph - N/A   Overcast
5:35 AM 44.1 °F 40.1 °F 34.3 °F 69% 30.36 in 10.0 mi East 6.9 mph - N/A   Overcast
5:55 AM 44.6 °F 39.7 °F 33.8 °F 66% 30.35 in 10.0 mi East 9.2 mph - N/A   Overcast
6:15 AM 45.0 °F 40.6 °F 33.4 °F 64% 30.35 in 10.0 mi East 8.1 mph - N/A   Overcast
6:35 AM 45.5 °F 40.8 °F 32.4 °F 60% 30.33 in 10.0 mi East 9.2 mph - N/A   Overcast
6:55 AM 45.5 °F 40.8 °F 32.7 °F 61% 30.33 in 10.0 mi East 9.2 mph - N/A   Light Drizzle
7:15 AM 45.9 °F 41.7 °F 32.9 °F 61% 30.34 in 10.0 mi East 8.1 mph - N/A   Overcast
7:35 AM 45.7 °F 41.5 °F 33.6 °F 63% 30.34 in 10.0 mi East 8.1 mph - N/A   Drizzle
7:55 AM 45.1 °F 40.3 °F 34.2 °F 65% 30.34 in 10.0 mi East 9.2 mph - N/A   Drizzle
8:15 AM 44.8 °F 40.4 °F 34.9 °F 68% 30.34 in 10.0 mi East 8.1 mph - N/A   Light Drizzle
8:35 AM 45.0 °F 40.6 °F 34.7 °F 67% 30.33 in 10.0 mi East 8.1 mph - N/A   Overcast
8:55 AM 44.6 °F 38.8 °F 35.6 °F 71% 30.31 in 7.0 mi East 11.5 mph 16.1 mph N/A Rain Rain
9:15 AM 44.8 °F 39.4 °F 36.7 °F 73% 30.30 in 7.0 mi East 10.4 mph 19.6 mph N/A   Drizzle
9:35 AM 44.6 °F 39.2 °F 37.6 °F 76% 30.29 in 10.0 mi East 10.4 mph 18.4 mph N/A   Overcast
9:55 AM 44.6 °F 39.7 °F 37.8 °F 77% 30.28 in 10.0 mi East 9.2 mph 17.3 mph N/A Rain Light Rain
10:15 AM 44.8 °F 39.0 °F 38.7 °F 79% 30.26 in 10.0 mi East 11.5 mph 18.4 mph N/A   Overcast
10:35 AM 44.6 °F 40.7 °F 39.7 °F 83% 30.27 in 7.0 mi ESE 6.9 mph 18.4 mph N/A Rain Rain
10:55 AM 43.7 °F 39.1 °F 42.4 °F 95% 30.25 in 5.0 mi East 8.1 mph - N/A   Drizzle
11:15 AM 43.7 °F 39.7 °F 43.3 °F 99% 30.24 in 5.0 mi ESE 6.9 mph 16.1 mph N/A   Light Drizzle
11:35 AM 43.7 °F 39.1 °F 43.7 °F 100% 30.21 in 4.0 mi East 8.1 mph - N/A Rain Rain
11:55 AM 44.1 °F 38.6 °F 44.1 °F 100% 30.20 in 4.0 mi ESE 10.4 mph 17.3 mph N/A   Drizzle
12:15 PM 43.9 °F 39.3 °F 43.9 °F 100% 30.18 in 2.5 mi ESE 8.1 mph - 0.01 in Rain Rain
12:35 PM 44.1 °F 39.0 °F 44.1 °F 100% 30.16 in 2.0 mi ESE 9.2 mph - 0.02 in Rain Rain
12:55 PM 44.2 °F 38.4 °F 44.2 °F 100% 30.15 in 2.0 mi East 11.5 mph 16.1 mph 0.05 in Rain Light Rain
1:15 PM 45.1 °F 40.3 °F 45.1 °F 100% 30.13 in 2.0 mi ESE 9.2 mph 17.3 mph N/A   Light Drizzle
1:35 PM 45.7 °F 40.6 °F 45.7 °F 100% 30.13 in 4.0 mi ESE 10.4 mph - N/A   Overcast
1:55 PM 46.6 °F - 46.6 °F 100% 30.13 in 5.0 mi ESE 10.4 mph 16.1 mph N/A   Overcast
2:15 PM 47.1 °F - 47.1 °F 100% 30.12 in 1.5 mi ESE 10.4 mph - N/A   Overcast
2:35 PM 47.3 °F - 47.3 °F 100% 30.10 in 1.0 mi ESE 9.2 mph - N/A   Overcast
2:55 PM 47.3 °F - 47.3 °F 100% 30.09 in 0.8 mi ESE 9.2 mph 16.1 mph N/A   Overcast
3:15 PM 47.3 °F - 47.3 °F 100% 30.08 in 0.8 mi East 10.4 mph - N/A   Overcast
3:35 PM 47.5 °F - 47.5 °F 100% 30.06 in 0.5 mi East 8.1 mph - N/A Fog Fog
3:55 PM 47.8 °F - 47.8 °F 100% 30.06 in 0.5 mi East 8.1 mph - N/A Fog Fog
4:15 PM 48.4 °F - 48.4 °F 100% 30.04 in 0.5 mi East 8.1 mph - N/A Rain Light Rain
4:35 PM 48.7 °F - 48.7 °F 100% 30.02 in 0.5 mi East 9.2 mph - N/A Rain Light Rain
4:55 PM 49.1 °F - 49.1 °F 100% 30.02 in 0.8 mi East 8.1 mph - N/A   Overcast
5:15 PM 50.0 °F - 50.0 °F 100% 30.01 in 0.5 mi ESE 8.1 mph - N/A Fog Fog
5:35 PM 50.0 °F - 50.0 °F 100% 30.00 in 0.5 mi East 8.1 mph - N/A Rain Light Rain
5:55 PM 50.4 °F - 50.4 °F 100% 30.00 in 0.2 mi ESE 5.8 mph - N/A   Light Drizzle
6:15 PM 50.9 °F - 50.9 °F 100% 29.99 in 0.2 mi ESE 4.6 mph - N/A   Light Drizzle
6:35 PM 51.3 °F - 51.3 °F 100% 29.98 in 0.2 mi East 5.8 mph - N/A   Light Drizzle
6:55 PM 51.8 °F - 51.8 °F 100% 29.98 in 0.2 mi East 5.8 mph - N/A   Light Drizzle
7:15 PM 52.7 °F - 52.7 °F 100% 29.97 in 0.2 mi East 5.8 mph - N/A Fog Fog
7:35 PM 53.4 °F - 53.4 °F 100% 29.96 in 0.2 mi East 6.9 mph - N/A Fog Fog
7:55 PM 54.5 °F - 54.5 °F 100% 29.96 in 0.5 mi East 4.6 mph - N/A Fog Fog
8:15 PM 54.5 °F - 54.5 °F 100% 29.96 in 0.5 mi East 5.8 mph - N/A Fog Fog
8:35 PM 54.9 °F - 54.9 °F 100% 29.95 in 0.5 mi ESE 4.6 mph - N/A Fog Fog
8:55 PM 54.9 °F - 54.9 °F 100% 29.94 in 0.5 mi East 6.9 mph - N/A Rain Rain
9:15 PM 55.2 °F - 55.2 °F 100% 29.92 in 0.8 mi East 6.9 mph - N/A Rain Light Rain
9:35 PM 55.8 °F - 55.8 °F 100% 29.91 in 1.0 mi East 6.9 mph - N/A Rain Light Rain
9:55 PM 56.3 °F - 56.3 °F 100% 29.89 in 1.8 mi East 8.1 mph - N/A   Overcast
10:15 PM 57.2 °F - 57.2 °F 100% 29.86 in 2.0 mi ESE 6.9 mph - 0.01 in Rain Heavy Rain
10:35 PM 58.5 °F - 58.5 °F 100% 29.85 in 3.0 mi SE 6.9 mph - 0.02 in Rain Light Rain
10:55 PM 59.4 °F - 59.4 °F 100% 29.84 in 5.0 mi SE 9.2 mph 18.4 mph 0.02 in   Light Drizzle
11:15 PM 59.7 °F - 59.7 °F 100% 29.83 in 4.0 mi SE 11.5 mph 17.3 mph N/A Rain Rain
11:35 PM 60.3 °F - 60.3 °F 100% 29.82 in 7.0 mi SE 10.4 mph 17.3 mph N/A   Overcast
11:55 PM 60.3 °F - 60.3 °F 100% 29.83 in 4.0 mi SSE 9.2 mph 18.4 mph 0.05 in Rain Light Rain